When you browse on this site, cookies collect data to enhance your experience and personalize the content and advertising you see.
Visit our Privacy Policy to learn more. By continuing to use the site, you agree to this use of cookies and data.

Hourly Weather Dobropole

Today, 4 August, Tuesday

Time Temperature Precipitation Wind Pressure Humidity
00:00 +17°C° 0 mm 3 mps 747 mmHg 63%
01:00 +17°C° 0 mm 3 mps 747 mmHg 65%
02:00 +17°C° 0 mm 2 mps 747 mmHg 68%
03:00 +17°C° 0 mm 2 mps 747 mmHg 69%
04:00 +17°C° 0 mm 2 mps 747 mmHg 69%
05:00 +17°C° 0 mm 2 mps 747 mmHg 69%
06:00 +19°C° 0 mm 2 mps 748 mmHg 63%
07:00 +21°C° 0 mm 3 mps 748 mmHg 56%
08:00 +25°C° 0 mm 3 mps 748 mmHg 49%
09:00 +26°C° 0 mm 3 mps 748 mmHg 45%
10:00 +27°C° 0 mm 3 mps 748 mmHg 41%
11:00 +28°C° 0 mm 2 mps 748 mmHg 37%
12:00 +29°C° 0 mm 2 mps 747 mmHg 36%
13:00 +29°C° 0 mm 3 mps 747 mmHg 34%
14:00 +30°C° 0 mm 3 mps 747 mmHg 33%
15:00 +30°C° 0 mm 3 mps 747 mmHg 33%
16:00 +29°C° 0 mm 3 mps 747 mmHg 34%
17:00 +29°C° 0 mm 3 mps 747 mmHg 35%
18:00 +27°C° 0 mm 3 mps 747 mmHg 40%
19:00 +25°C° 0 mm 3 mps 747 mmHg 46%
20:00 +22°C° 0 mm 4 mps 747 mmHg 51%
21:00 +21°C° 0 mm 3 mps 747 mmHg 53%
22:00 +20°C° 0 mm 3 mps 747 mmHg 55%
23:00 +19°C° 0 mm 3 mps 747 mmHg 57%

Tomorrow, 5 August, Wednesday

Time Temperature Precipitation Wind Pressure Humidity
00:00 +19°C° 0 mm 3 mps 747 mmHg 59%
01:00 +18°C° 0 mm 3 mps 747 mmHg 61%
02:00 +18°C° 0 mm 3 mps 747 mmHg 62%
03:00 +17°C° 0 mm 3 mps 747 mmHg 64%
04:00 +17°C° 0 mm 3 mps 747 mmHg 67%
05:00 +17°C° 0 mm 3 mps 747 mmHg 69%
06:00 +19°C° 0 mm 3 mps 747 mmHg 62%
07:00 +21°C° 0 mm 4 mps 748 mmHg 56%
08:00 +23°C° 0 mm 4 mps 748 mmHg 50%
09:00 +26°C° 0 mm 4 mps 748 mmHg 46%
10:00 +27°C° 0 mm 5 mps 748 mmHg 42%
11:00 +28°C° 0 mm 5 mps 748 mmHg 38%
12:00 +29°C° 0 mm 5 mps 747 mmHg 37%
13:00 +29°C° 0 mm 5 mps 747 mmHg 36%
14:00 +30°C° 0 mm 5 mps 747 mmHg 35%
15:00 +29°C° 0 mm 6 mps 747 mmHg 37%
16:00 +29°C° 0 mm 6 mps 747 mmHg 39%
17:00 +28°C° 0 mm 6 mps 747 mmHg 41%
18:00 +27°C° 0 mm 5 mps 747 mmHg 47%
19:00 +25°C° 0 mm 4 mps 747 mmHg 53%
20:00 +22°C° 0 mm 4 mps 747 mmHg 59%
21:00 +21°C° 0 mm 4 mps 747 mmHg 62%
22:00 +20°C° 0 mm 3 mps 747 mmHg 65%
23:00 +20°C° 0 mm 3 mps 747 mmHg 69%

Day after tomorrow, 6 August, Thursday

Time Temperature Precipitation Wind Pressure Humidity
00:00 +19°C° 0 mm 3 mps 747 mmHg 71%
01:00 +19°C° 0 mm 3 mps 747 mmHg 73%
02:00 +18°C° 0 mm 3 mps 747 mmHg 74%
03:00 +18°C° 0 mm 3 mps 747 mmHg 76%
04:00 +18°C° 0 mm 3 mps 748 mmHg 77%
05:00 +18°C° 0 mm 3 mps 748 mmHg 79%
06:00 +20°C° 0 mm 4 mps 748 mmHg 72%
07:00 +22°C° 0 mm 5 mps 748 mmHg 66%
08:00 +25°C° 0 mm 5 mps 748 mmHg 60%
09:00 +27°C° 0 mm 5 mps 748 mmHg 55%
10:00 +29°C° 0 mm 5 mps 748 mmHg 50%
11:00 +30°C° 0 mm 5 mps 748 mmHg 45%
12:00 +32°C° 0 mm 5 mps 748 mmHg 43%
13:00 +33°C° 0 mm 5 mps 748 mmHg 40%
14:00 +34°C° 0 mm 5 mps 748 mmHg 38%
15:00 +33°C° 0 mm 5 mps 748 mmHg 40%
16:00 +33°C° 0 mm 5 mps 748 mmHg 42%
17:00 +32°C° 0 mm 5 mps 747 mmHg 44%
18:00 +29°C° 0 mm 5 mps 748 mmHg 50%
19:00 +27°C° 0 mm 5 mps 748 mmHg 55%
20:00 +25°C° 0 mm 4 mps 748 mmHg 61%
21:00 +25°C° 0 mm 4 mps 748 mmHg 62%
22:00 +23°C° 0 mm 4 mps 748 mmHg 63%
23:00 +22°C° 0 mm 4 mps 748 mmHg 63%

7 August, Friday

Time Temperature Precipitation Wind Pressure Humidity
00:00 +21°C° 0 mm 4 mps 748 mmHg 65%
01:00 +21°C° 0 mm 4 mps 748 mmHg 67%
02:00 +20°C° 0 mm 4 mps 748 mmHg 68%
03:00 +19°C° 0 mm 4 mps 748 mmHg 70%
04:00 +19°C° 0 mm 3 mps 748 mmHg 72%
05:00 +19°C° 0 mm 3 mps 748 mmHg 74%
06:00 +21°C° 0 mm 4 mps 748 mmHg 68%
07:00 +23°C° 0 mm 4 mps 748 mmHg 61%
08:00 +26°C° 0 mm 5 mps 748 mmHg 55%
09:00 +27°C° 0 mm 5 mps 748 mmHg 49%
10:00 +29°C° 0 mm 5 mps 748 mmHg 44%
11:00 +30°C° 0 mm 5 mps 748 mmHg 38%
12:00 +32°C° 0 mm 5 mps 748 mmHg 36%
13:00 +33°C° 0 mm 5 mps 747 mmHg 34%
14:00 +33°C° 0 mm 5 mps 747 mmHg 32%
15:00 +33°C° 0 mm 5 mps 747 mmHg 33%
16:00 +32°C° 0 mm 5 mps 747 mmHg 35%
17:00 +32°C° 0 mm 5 mps 746 mmHg 36%
18:00 +28°C° 0 mm 4 mps 746 mmHg 42%
19:00 +26°C° 0 mm 4 mps 746 mmHg 48%
20:00 +24°C° 0 mm 3 mps 746 mmHg 54%
21:00 +24°C° 0 mm 3 mps 746 mmHg 58%
22:00 +22°C° 0 mm 3 mps 746 mmHg 61%
23:00 +21°C° 0 mm 3 mps 746 mmHg 65%

8 August, Saturday

Time Temperature Precipitation Wind Pressure Humidity
00:00 +21°C° 0 mm 3 mps 746 mmHg 71%
01:00 +20°C° 0 mm 3 mps 746 mmHg 78%
02:00 +20°C° 0 mm 3 mps 745 mmHg 84%
03:00 +19°C° 0 mm 3 mps 745 mmHg 87%
04:00 +19°C° 0 mm 3 mps 745 mmHg 90%
05:00 +19°C° 0 mm 4 mps 745 mmHg 92%
06:00 +21°C° 0 mm 4 mps 745 mmHg 83%
07:00 +23°C° 0 mm 4 mps 745 mmHg 73%
08:00 +26°C° 0 mm 4 mps 745 mmHg 64%
09:00 +28°C° 0 mm 4 mps 745 mmHg 58%
10:00 +29°C° 0 mm 4 mps 745 mmHg 52%
11:00 +30°C° 0 mm 4 mps 745 mmHg 45%
12:00 +32°C° 0.1 mm 4 mps 744 mmHg 45%
13:00 +32°C° 0.1 mm 4 mps 744 mmHg 45%
14:00 +32°C° 0.1 mm 4 mps 743 mmHg 45%
15:00 +30°C° 0 mm 5 mps 743 mmHg 48%
16:00 +29°C° 0 mm 5 mps 743 mmHg 50%
17:00 +29°C° 0 mm 5 mps 743 mmHg 53%
18:00 +27°C° 0 mm 5 mps 743 mmHg 57%
19:00 +26°C° 0 mm 5 mps 743 mmHg 61%
20:00 +23°C° 0 mm 4 mps 743 mmHg 65%
21:00 +23°C° 0 mm 5 mps 743 mmHg 64%
22:00 +22°C° 0 mm 5 mps 743 mmHg 62%
23:00 +21°C° 0 mm 5 mps 743 mmHg 61%

9 August, Sunday

Time Temperature Precipitation Wind Pressure Humidity
00:00 +21°C° 0 mm 5 mps 742 mmHg 62%
01:00 +20°C° 0 mm 5 mps 742 mmHg 62%
02:00 +20°C° 0 mm 5 mps 742 mmHg 62%
03:00 +19°C° 0 mm 5 mps 742 mmHg 64%
04:00 +19°C° 0 mm 5 mps 742 mmHg 65%
05:00 +17°C° 0 mm 5 mps 742 mmHg 67%
06:00 +20°C° 0 mm 6 mps 742 mmHg 63%
07:00 +21°C° 0 mm 6 mps 742 mmHg 58%
08:00 +23°C° 0 mm 6 mps 742 mmHg 54%
09:00 +24°C° 0 mm 6 mps 742 mmHg 51%
10:00 +27°C° 0 mm 6 mps 742 mmHg 47%
11:00 +28°C° 0 mm 6 mps 742 mmHg 44%
12:00 +28°C° 0 mm 6 mps 742 mmHg 43%
13:00 +29°C° 0 mm 6 mps 742 mmHg 43%
14:00 +29°C° 0 mm 6 mps 741 mmHg 42%
15:00 +28°C° 0 mm 5 mps 741 mmHg 43%
16:00 +28°C° 0 mm 5 mps 741 mmHg 44%
17:00 +27°C° 0 mm 5 mps 741 mmHg 46%
18:00 +26°C° 0 mm 5 mps 741 mmHg 47%
19:00 +25°C° 0 mm 4 mps 741 mmHg 48%
20:00 +22°C° 0 mm 4 mps 742 mmHg 49%
21:00 +21°C° 0 mm 4 mps 742 mmHg 51%
22:00 +20°C° 0 mm 4 mps 742 mmHg 52%
23:00 +19°C° 0 mm 4 mps 742 mmHg 54%
Show more